This demonstration page uses our WeatherBlox Daily Observations layout. Learn more.

Left ArrowRight Arrow

Hourly Observations for February 21, 2019

Temp ( °F °C ) Dew Point ( °F °C ) Humidity (%) Winds ( mph kmh ) Pressure ( in mb ) Visibility ( mi km ) Precip ( " mm )
12:15 am 00:15 Cloudy 36 2 34 1 93 93 W 16 26 30.04 1017 10 16 N/A
12:36 am 00:36 Cloudy 36 2 34 1 93 93 W 15 24 30.04 1017 10 16 N/A
12:55 am 00:55 Mostly Cloudy 34 1 32 undefined 93 93 W 12 19 30.05 1018 10 16 N/A
12:56 am 00:56 Mostly Cloudy 34 1 32 undefined 93 93 W 12 19 30.05 1018 10 16 N/A
1:15 am 01:15 Cloudy 36 2 34 1 93 93 W 10 17 30.06 1018 10 16 N/A
1:35 am 01:35 Cloudy 36 2 34 1 93 93 W 14 22 30.06 1018 10 16 N/A
1:36 am 01:36 Cloudy 36 2 34 1 93 93 W 13 20 30.07 1018 10 16 N/A
1:55 am 01:55 Cloudy 36 2 32 undefined 87 87 W 17 28 30.08 1019 10 16 N/A
2:15 am 02:15 Partly Cloudy 34 1 32 undefined 93 93 W 13 20 30.08 1019 10 16 N/A
2:35 am 02:35 Clear 34 1 32 undefined 93 93 W 15 24 30.09 1019 10 16 N/A
2:36 am 02:36 Clear 34 1 32 undefined 93 93 W 15 24 30.09 1019 10 16 N/A
2:55 am 02:55 Clear 34 1 32 undefined 93 93 W 13 20 30.10 1019 10 16 N/A
3:15 am 03:15 Clear 32 undefined 32 undefined 100 100 W 12 19 30.11 1019 10 16 N/A
3:35 am 03:35 Clear 32 undefined 32 undefined 100 100 W 10 17 30.11 1019 10 16 N/A
3:36 am 03:36 Clear 32 undefined 32 undefined 100 100 W 9 15 30.11 1019 10 16 N/A
3:55 am 03:55 Clear 32 undefined 32 undefined 100 100 W 8 13 30.11 1019 10 16 N/A
4:15 am 04:15 Clear 30 -1 30 -1 100 100 W 7 11 30.11 1020 10 16 N/A
4:35 am 04:35 Clear 30 -1 30 -1 100 100 W 8 13 30.12 1020 10 16 N/A
4:36 am 04:36 Clear 30 -1 30 -1 100 100 W 8 13 30.12 1020 10 16 N/A
4:55 am 04:55 Clear 30 -1 30 -1 100 100 WSW 6 9 30.13 1020 10 16 N/A
5:15 am 05:15 Clear 30 -1 30 -1 100 100 WSW 6 9 30.13 1020 10 16 N/A
5:16 am 05:16 Clear 30 -1 30 -1 100 100 WSW 6 9 30.13 1020 10 16 N/A
5:35 am 05:35 Clear 30 -1 30 -1 100 100 WSW 7 11 30.14 1021 10 16 N/A
5:36 am 05:36 Clear 30 -1 30 -1 100 100 WSW 6 9 30.14 1021 10 16 N/A
5:55 am 05:55 Clear 30 -1 30 -1 100 100 WSW 6 9 30.14 1021 10 16 N/A
6:15 am 06:15 Clear 30 -1 30 -1 100 100 WSW 6 9 30.14 1021 10 16 N/A
6:16 am 06:16 Clear 30 -1 30 -1 100 100 WSW 6 9 30.15 1021 10 16 N/A
6:35 am 06:35 Clear 28 -2 28 -2 100 100 SW 5 7 30.15 1021 10 16 N/A
6:36 am 06:36 Clear 28 -2 28 -2 100 100 SW 5 7 30.15 1021 10 16 N/A
6:55 am 06:55 Clear 30 -1 30 -1 100 100 SW 5 7 30.16 1021 10 16 N/A
7:15 am 07:15 Clear 30 -1 30 -1 100 100 SW 5 7 30.18 1022 10 16 N/A
7:16 am 07:16 Clear 30 -1 30 -1 100 100 SW 5 7 30.18 1022 10 16 N/A
7:35 am 07:35 Sunny 28 -2 28 -2 100 100 SW 5 7 30.18 1022 7 11 N/A
7:55 am 07:55 Sunny 28 -2 28 -2 100 100 SW 5 7 30.19 1022 7 11 N/A
8:15 am 08:15 Sunny 30 -1 30 -1 100 100 WSW 5 7 30.21 1023 7 11 N/A
8:16 am 08:16 Sunny 30 -1 30 -1 100 100 WSW 5 7 30.21 1023 7 11 N/A
8:35 am 08:35 Sunny 32 undefined 32 undefined 100 100 SW 6 9 30.22 1023 7 11 N/A
8:55 am 08:55 Sunny 32 undefined 32 undefined 100 100 WSW 6 9 30.24 1024 7 11 N/A
9:15 am 09:15 Sunny 34 1 32 undefined 93 93 WSW 5 7 30.23 1024 7 11 N/A
9:16 am 09:16 Sunny 34 1 32 undefined 93 93 SW 5 7 30.23 1024 7 11 N/A
9:35 am 09:35 Sunny 34 1 32 undefined 93 93 SW 7 11 30.25 1024 10 16 N/A
9:55 am 09:55 Sunny 36 2 32 undefined 87 87 W 7 11 30.25 1024 10 16 N/A
10:15 am 10:15 Sunny 36 2 32 undefined 87 87 WSW 7 11 30.25 1024 10 16 N/A
10:16 am 10:16 Sunny 36 2 32 undefined 87 87 W 8 13 30.26 1025 10 16 N/A
10:35 am 10:35 Sunny 37 3 32 undefined 81 81 SW 7 11 30.25 1025 10 16 N/A
10:55 am 10:55 Sunny 37 3 32 undefined 81 81 SW 6 9 30.26 1025 10 16 N/A
11:15 am 11:15 Sunny 37 3 34 1 87 87 WSW 9 15 30.26 1025 10 16 N/A
11:16 am 11:16 Sunny 37 3 34 1 87 87 WSW 9 15 30.26 1025 10 16 N/A
11:35 am 11:35 Sunny 39 4 32 undefined 75 75 WSW 8 13 30.27 1025 10 16 N/A
11:55 am 11:55 Sunny 39 4 34 1 81 81 W 10 17 30.27 1025 10 16 N/A
11:56 am 11:56 Sunny 41 5 34 1 76 76 W 12 19 30.27 1025 10 16 N/A
12:15 pm 12:15 Sunny 39 4 32 undefined 75 75 W 7 11 30.26 1025 10 16 N/A
12:35 pm 12:35 Sunny 41 5 32 undefined 70 70 W 9 15 30.25 1024 10 16 N/A
12:55 pm 12:55 Sunny 41 5 32 undefined 70 70 WNW 10 17 30.24 1024 10 16 N/A
12:56 pm 12:56 Sunny 41 5 32 undefined 70 70 W 12 19 30.24 1024 10 16 N/A
1:15 pm 13:15 Sunny 41 5 32 undefined 70 70 WSW 8 13 30.23 1024 10 16 N/A
1:35 pm 13:35 Sunny 41 5 32 undefined 70 70 WNW 8 13 30.23 1024 10 16 N/A
1:56 pm 13:56 Sunny 41 5 30 -1 66 66 W 7 11 30.23 1024 10 16 N/A
2:15 pm 14:15 Sunny 41 5 32 undefined 70 70 WSW 7 11 30.24 1024 10 16 N/A
2:36 pm 14:36 Sunny 41 5 32 undefined 70 70 W 9 15 30.24 1024 10 16 N/A
2:55 pm 14:55 Sunny 41 5 32 undefined 70 70 W 10 17 30.25 1024 10 16 N/A
2:56 pm 14:56 Sunny 41 5 30 -1 66 66 W 9 15 30.25 1024 10 16 N/A
3:15 pm 15:15 Sunny 41 5 30 -1 66 66 WNW 6 9 30.25 1024 10 16 N/A
3:36 pm 15:36 Sunny 41 5 32 undefined 70 70 NW 7 11 30.25 1024 10 16 N/A
3:56 pm 15:56 Sunny 41 5 30 -1 66 66 WNW 8 13 30.26 1025 10 16 N/A
4:15 pm 16:15 Sunny 39 4 32 undefined 75 75 NW 7 11 30.27 1025 10 16 N/A
4:35 pm 16:35 Sunny 39 4 32 undefined 75 75 WNW 7 11 30.27 1025 10 16 N/A
4:55 pm 16:55 Sunny 39 4 32 undefined 75 75 WNW 7 11 30.27 1025 10 16 N/A
4:56 pm 16:56 Sunny 39 4 32 undefined 75 75 WNW 8 13 30.27 1025 10 16 N/A
5:15 pm 17:15 Sunny 39 4 32 undefined 75 75 NW 6 9 30.27 1025 10 16 N/A
5:35 pm 17:35 Sunny 37 3 32 undefined 81 81 WNW 5 7 30.27 1025 10 16 N/A
5:55 pm 17:55 Sunny 37 3 32 undefined 81 81 NW 6 9 30.27 1025 10 16 N/A
5:56 pm 17:56 Sunny 37 3 32 undefined 81 81 NW 6 9 30.27 1025 10 16 N/A
6:15 pm 18:15 Sunny 37 3 32 undefined 81 81 WNW 6 9 30.28 1026 10 16 N/A
6:35 pm 18:35 Clear 37 3 32 undefined 81 81 NW 6 9 30.29 1026 10 16 N/A
8:15 pm 20:15 Clear 34 1 32 undefined 93 93 NNW 3 6 30.31 1026 10 16 N/A
8:35 pm 20:35 Clear 34 1 32 undefined 93 93 NW 3 6 30.32 1027 10 16 N/A
8:36 pm 20:36 Clear 34 1 32 undefined 93 93 NW 3 6 30.32 1027 10 16 N/A
8:55 pm 20:55 Clear 34 1 32 undefined 93 93 NW 6 9 30.33 1027 10 16 N/A
8:56 pm 20:56 Clear 34 1 32 undefined 93 93 NW 6 9 30.33 1027 10 16 N/A
9:15 pm 21:15 Mostly Cloudy 34 1 32 undefined 93 93 NW 5 7 30.34 1027 10 16 N/A
9:35 pm 21:35 Mostly Cloudy 34 1 32 undefined 93 93 NNW 5 7 30.34 1027 10 16 N/A
9:36 pm 21:36 Mostly Cloudy 34 1 32 undefined 93 93 NNW 5 7 30.34 1027 10 16 N/A
9:55 pm 21:55 Partly Cloudy 34 1 34 1 100 100 NNE 6 9 30.34 1027 10 16 N/A
9:56 pm 21:56 Partly Cloudy 34 1 34 1 100 100 NNE 6 9 30.34 1027 10 16 N/A
10:15 pm 22:15 Clear 32 undefined 32 undefined 100 100 NNE 7 11 30.34 1027 7 11 N/A
10:35 pm 22:35 Clear 32 undefined 32 undefined 100 100 N 6 9 30.35 1028 7 11 N/A
10:36 pm 22:36 Clear 32 undefined 32 undefined 100 100 NNE 6 9 30.35 1028 7 11 N/A
10:55 pm 22:55 Clear 32 undefined 32 undefined 100 100 NNE 3 6 30.35 1028 7 11 N/A
11:15 pm 23:15 Clear 32 undefined 32 undefined 100 100 N 3 6 30.35 1028 7 11 N/A
11:35 pm 23:35 Clear 32 undefined 32 undefined 100 100 N N/A 30.34 1027 7 11 N/A
11:36 pm 23:36 Clear 32 undefined 32 undefined 100 100 N N/A 30.34 1027 7 11 N/A
11:55 pm 23:55 Clear 32 undefined 32 undefined 100 100 N N/A 30.35 1028 7 11 N/A

Powered by AerisWeather